GFSGBSN_700_spd_060.txt.gz
Wind_Speed
38 38 38 36 36 36 36 35 35 34 35 34 34 33 34 33 33 34 33 32 33 30 28 27 27 24 19 16 14 14 13 11 10 6 6 9 8 8 7 7 10 11 7 10 10 11 10
42 42 41 40 39 38 37 36 36 36 34 34 33 33 32 34 34 35 35 33 32 33 28 29 28 25 22 17 15 11 11 12 11 7 8 10 12 11 8 8 9 9 8 11 11 14 13
46 46 45 44 43 42 40 39 37 36 35 34 34 33 31 32 34 36 35 34 33 33 30 29 29 27 25 15 16 13 12 14 13 10 10 13 12 8 9 7 13 9 9 9 8 10 8
49 50 49 49 47 45 44 43 41 38 36 35 33 32 31 30 30 32 34 33 35 32 32 30 29 28 26 18 17 13 14 16 14 11 15 13 12 10 8 10 11 10 10 10 6 5 5
49 49 51 51 51 50 49 46 44 42 39 37 35 32 31 30 29 29 29 30 33 33 29 29 28 28 26 21 20 17 18 19 16 14 16 13 10 9 9 8 11 12 12 7 4 6 7
49 48 48 50 51 52 52 51 48 46 43 40 37 35 31 31 30 28 28 28 29 34 35 32 29 24 21 15 10 17 22 23 21 18 15 13 11 9 9 10 11 10 10 9 6 5 5
44 45 47 47 48 50 52 52 52 50 47 43 40 37 34 31 30 29 26 26 27 30 34 32 23 18 22 16 17 17 25 25 23 20 14 14 11 10 7 9 9 8 8 6 3 5 7
44 46 45 45 46 46 48 50 51 53 51 47 44 39 37 34 32 30 26 24 26 29 31 29 26 28 18 15 18 21 28 30 28 20 18 13 13 9 10 9 6 8 10 8 6 7 6
48 47 46 46 45 45 45 46 49 52 54 51 47 43 39 36 33 31 27 24 21 26 28 31 26 25 24 27 21 23 30 30 29 22 20 16 8 13 12 9 8 8 9 6 4 5 9
50 51 51 49 48 47 45 45 44 45 50 53 50 46 42 40 35 31 28 25 20 19 17 28 26 28 32 29 36 29 28 33 26 26 18 17 16 13 11 12 12 12 10 8 7 10 11
46 48 49 51 51 50 48 45 44 42 43 50 53 49 44 41 39 32 29 22 17 9 6 8 17 22 25 36 24 33 31 35 27 22 24 18 17 19 16 12 11 12 10 8 9 10 8
47 46 46 48 49 50 49 48 46 43 40 41 50 51 48 44 40 32 27 21 15 7 10 7 9 14 21 28 32 21 37 34 27 22 24 16 16 12 10 11 11 11 8 9 6 6 9
49 49 48 45 48 48 49 50 48 44 41 38 41 50 51 46 37 33 29 21 12 14 6 10 11 15 15 22 27 26 42 38 33 28 26 22 18 13 11 9 9 12 11 9 5 6 4
55 55 53 49 46 48 49 50 50 46 42 39 33 41 48 49 38 36 30 27 20 15 26 8 12 10 15 19 20 26 32 34 33 27 25 24 20 19 15 13 10 15 13 7 5 4 4
58 54 50 48 45 45 46 48 50 48 44 41 35 31 43 48 43 37 34 35 27 24 17 16 8 12 15 21 17 25 32 37 36 31 19 27 19 14 18 14 12 13 12 9 3 3 3
48 47 47 48 47 46 43 43 49 46 44 42 34 35 44 40 45 45 43 48 33 21 26 23 15 12 16 25 17 26 29 33 34 31 25 13 18 14 17 15 16 10 13 7 7 4 5
51 52 51 49 49 49 49 45 43 47 41 40 35 40 43 42 41 45 54 52 33 24 31 20 18 12 11 18 26 27 21 14 36 35 29 19 14 11 17 17 16 15 10 7 4 4 3
52 54 54 54 51 50 49 50 47 47 44 43 40 49 41 45 47 55 55 48 27 33 31 23 17 27 14 17 23 25 27 25 15 32 37 27 17 15 15 14 17 15 14 13 10 6 7
51 50 52 54 53 53 51 51 51 50 52 48 51 47 40 40 55 53 52 47 43 29 35 26 23 18 22 16 12 25 24 27 12 31 35 33 21 15 13 15 17 14 17 15 14 14 15
53 54 51 51 56 51 53 51 53 54 54 55 56 38 37 38 58 69 39 39 45 38 26 30 30 18 18 16 20 11 25 22 31 13 30 33 24 30 22 17 14 16 20 21 18 13 16
54 55 54 52 53 53 52 52 54 57 57 60 64 47 60 59 56 63 47 40 44 37 39 30 28 29 20 12 14 15 20 21 24 33 22 31 30 25 24 19 18 20 19 19 23 23 22
47 47 48 54 53 56 55 58 56 58 60 63 64 54 56 36 56 69 59 46 43 47 38 38 29 36 26 19 11 16 12 18 15 27 30 31 22 23 23 21 21 23 21 21 23 22 21
42 44 45 49 55 54 57 55 55 58 65 69 61 50 45 49 39 50 59 55 39 42 35 35 33 27 39 26 17 18 10 10 14 17 25 27 25 20 19 17 16 20 28 23 21 25 23
42 44 45 46 54 54 58 57 55 60 68 66 73 55 44 37 33 48 51 44 44 38 39 27 30 36 37 33 34 28 27 23 17 14 15 17 25 22 17 15 7 21 18 18 21 23 22
45 49 48 49 52 56 56 59 56 50 67 63 71 64 44 37 37 33 42 47 36 34 37 33 26 24 28 35 33 24 21 25 26 21 19 17 22 19 16 19 19 18 21 21 22 24 21
39 44 53 51 52 57 55 55 56 53 66 62 66 66 43 41 36 33 27 38 43 40 37 32 28 25 26 20 14 17 16 15 10 14 22 21 26 19 16 10 9 19 22 20 19 27 20
25 40 50 49 50 52 51 53 53 54 66 62 63 59 54 38 24 30 32 33 42 37 35 33 28 33 28 25 20 12 17 19 14 13 15 25 26 27 23 11 15 16 16 15 16 30 15
30 38 44 44 47 50 47 44 50 57 64 58 60 56 51 37 30 33 26 26 37 35 43 33 29 32 34 24 17 11 12 14 15 16 18 20 20 22 19 14 15 17 19 23 25 20 20
29 34 39 40 44 43 41 47 48 51 57 58 60 54 51 31 23 39 32 30 29 38 36 35 40 36 29 21 19 14 14 14 18 22 26 21 23 18 20 20 23 18 17 20 20 21 22

GFSGBSN_700_spd_066.txt.gz
Wind_Speed
34 34 35 35 35 35 35 34 34 34 33 32 31 31 31 31 31 29 30 30 29 29 31 30 30 31 28 28 23 22 18 18 16 15 13 13 11 11 14 15 14 17 17 16 16 17 17
37 37 37 37 37 37 37 36 35 35 34 35 33 33 32 32 31 30 29 29 29 30 30 31 30 30 33 31 20 20 16 17 16 16 15 15 12 11 16 19 17 17 15 17 18 18 19
37 38 39 39 39 39 39 39 38 37 37 35 35 35 35 33 32 30 29 28 28 29 28 30 31 33 34 28 20 23 18 17 16 16 17 11 13 14 15 14 14 18 20 19 20 19 18
38 38 39 40 40 41 41 41 42 41 39 38 37 36 36 36 34 32 30 28 27 28 26 27 27 34 38 26 26 23 22 18 17 19 19 14 14 17 15 16 18 19 19 23 17 12 15
39 39 39 40 40 41 42 42 43 42 42 41 40 39 37 36 35 33 32 30 27 26 26 26 25 30 33 29 25 23 24 19 16 18 21 18 16 16 13 16 18 19 22 21 18 14 14
40 41 40 40 40 41 41 42 42 43 43 42 42 42 40 38 36 34 32 31 28 27 28 27 26 26 21 21 20 14 19 20 21 19 21 21 17 16 17 17 25 20 13 24 17 13 13
40 39 39 39 40 40 39 38 40 42 42 42 43 43 43 42 38 36 32 29 26 26 30 28 22 25 8 11 20 16 15 22 20 20 22 19 18 22 19 22 21 21 16 15 5 5 6
38 37 37 37 36 37 38 39 37 38 39 40 40 42 43 44 42 38 34 30 20 30 36 37 32 35 25 23 20 19 18 22 28 29 21 20 28 21 19 18 14 15 15 15 8 1 8
39 39 40 40 39 39 39 41 41 40 37 37 37 38 40 41 44 38 34 29 25 27 35 43 37 39 26 27 29 19 22 24 28 26 27 28 24 18 21 16 13 14 15 11 17 10 16
41 41 41 40 37 36 37 38 41 43 41 37 36 33 34 38 38 37 36 22 24 19 22 35 27 33 30 28 31 24 26 26 24 30 28 28 23 15 19 15 15 15 13 12 14 13 14
43 42 39 36 36 37 37 37 37 38 41 40 37 35 33 33 31 34 23 17 12 10 6 9 16 20 17 36 18 27 31 29 32 25 27 31 25 24 19 20 16 17 6 11 11 15 19
45 41 38 37 37 37 35 37 39 38 38 39 39 36 35 33 28 23 24 15 17 11 12 8 15 16 17 28 27 7 35 32 29 28 24 27 22 24 24 18 17 13 13 12 14 16 15
42 39 39 40 39 37 36 34 34 37 38 37 37 36 37 33 27 17 24 27 18 19 20 18 17 13 17 21 30 23 31 36 39 37 36 28 29 23 21 22 20 15 14 12 9 11 8
41 41 42 41 39 39 39 37 35 35 36 36 35 35 37 34 25 28 30 31 21 33 35 6 21 15 20 19 23 31 28 39 40 31 30 28 27 31 23 22 21 19 19 15 6 3 4
43 44 44 45 44 43 41 42 41 37 37 36 29 33 35 35 26 33 30 39 36 38 26 32 12 16 18 19 16 26 35 37 42 41 37 34 33 26 25 22 22 20 21 22 9 12 7
46 46 46 45 45 46 45 44 42 36 35 31 33 32 32 33 28 31 40 38 52 46 30 23 35 16 15 20 21 23 30 30 37 38 34 30 24 28 27 23 22 24 15 18 12 4 6
50 49 49 50 51 51 49 43 43 36 33 32 35 36 37 27 32 37 49 63 59 39 36 29 27 27 33 20 20 23 23 24 35 33 39 41 27 25 27 30 26 21 19 17 21 15 1
57 57 57 57 57 47 42 39 43 42 37 38 41 46 35 35 45 48 61 61 51 41 38 32 27 35 25 26 20 26 27 22 21 39 40 43 22 23 26 26 24 24 22 19 15 10 11
54 52 48 44 43 45 45 43 43 46 45 46 49 48 35 38 55 59 55 58 40 39 31 36 31 22 24 25 24 22 26 25 24 27 43 41 39 20 23 26 25 28 25 22 24 21 20
50 47 46 49 46 45 50 46 48 49 51 52 54 47 49 43 54 57 54 48 41 46 43 32 31 24 29 22 19 13 28 25 28 21 31 33 34 29 20 28 27 25 24 24 28 24 15
45 44 45 44 45 43 42 55 53 54 56 59 66 50 61 60 61 65 43 26 37 41 40 32 31 30 30 25 21 20 10 22 31 24 32 29 34 32 27 26 28 27 26 26 27 24 27
44 44 45 44 46 52 50 47 58 55 55 65 68 51 59 37 56 50 49 46 33 39 45 51 34 25 31 26 25 27 23 19 21 32 33 30 25 36 27 31 27 23 27 30 27 27 25
41 42 41 41 43 47 48 54 58 58 60 66 73 66 38 52 33 47 57 51 45 31 41 46 43 30 30 21 25 7 21 19 18 17 24 28 28 27 30 29 26 32 32 23 23 26 25
40 38 37 39 39 44 48 50 59 58 62 74 70 66 42 37 43 43 50 46 39 37 40 42 46 35 32 22 15 18 22 26 26 25 20 21 25 33 24 26 23 27 27 24 24 25 22
36 36 37 39 43 41 47 49 50 63 59 74 69 66 63 44 40 40 30 42 39 31 38 40 43 42 31 29 21 13 19 20 25 23 24 23 20 27 24 26 23 28 19 22 24 27 23
35 39 40 42 44 42 45 50 47 56 53 59 66 63 59 49 38 33 31 38 42 39 36 38 44 33 34 30 29 15 13 16 17 22 25 25 20 28 19 21 14 23 23 16 22 26 21
39 41 42 38 41 47 45 51 52 57 56 52 77 57 55 40 30 32 38 37 38 36 40 43 47 32 43 40 19 18 18 17 18 17 18 26 28 31 28 17 17 19 27 25 26 21 14
31 36 38 39 38 44 46 50 53 53 55 54 60 53 59 36 43 27 37 31 36 36 44 48 35 38 35 29 31 15 17 21 19 25 23 27 20 27 27 24 19 11 20 30 29 25 25
14 4 27 32 37 40 41 48 52 53 50 51 57 50 49 49 34 31 38 26 24 36 38 39 46 29 28 29 21 20 14 20 25 27 26 30 31 24 20 26 24 22 26 19 21 20 19

GFSGBSN_700_spd_072.txt.gz
Wind_Speed
29 30 31 31 31 30 29 29 29 30 30 30 30 31 30 30 29 28 27 28 27 27 28 29 29 30 29 28 20 21 21 22 20 19 17 16 18 17 18 14 14 18 18 20 21 17 14
31 31 31 32 33 32 32 31 30 31 32 31 32 31 32 31 29 29 29 28 26 27 27 28 32 32 33 27 23 22 20 23 21 20 18 20 18 15 21 17 18 19 21 23 20 17 19
33 34 34 33 34 34 34 33 31 33 33 33 34 34 34 33 32 30 29 28 28 27 27 28 32 33 34 22 26 25 22 17 16 17 16 18 17 19 19 20 19 21 23 22 23 23 26
34 34 35 34 35 35 35 34 34 33 33 34 34 35 35 36 35 34 31 30 27 28 27 30 32 35 35 25 27 26 26 21 21 20 18 17 17 21 23 20 21 21 21 24 5 12 15
35 35 35 34 34 35 35 35 35 35 36 35 35 34 35 36 36 36 35 32 30 31 29 32 32 36 31 25 22 23 26 21 23 21 21 19 23 25 21 20 21 22 25 20 17 14 22
34 34 34 34 34 34 34 34 34 34 34 35 36 35 35 36 36 37 33 32 32 33 32 35 35 33 22 21 21 21 19 23 26 24 24 25 28 29 27 23 26 23 18 14 18 15 11
35 34 34 34 34 34 33 32 32 32 32 32 32 33 32 33 35 34 31 28 29 35 40 40 35 29 21 19 23 19 20 18 25 29 31 27 28 38 35 27 24 22 20 14 14 15 12
36 36 37 37 36 35 34 33 32 31 30 30 30 29 30 30 31 27 26 20 25 34 46 44 43 44 33 28 34 25 22 21 25 29 29 24 36 32 27 24 25 22 22 21 22 21 19
38 38 39 38 38 37 36 35 34 33 33 32 31 30 29 31 27 24 20 16 21 34 42 50 44 47 35 33 38 30 30 25 26 29 32 36 26 21 28 25 24 23 21 23 26 16 19
39 39 39 39 39 39 38 37 36 35 34 33 30 28 27 30 25 21 16 11 17 29 22 45 40 43 35 35 49 34 37 31 33 35 30 34 30 21 16 25 25 26 13 19 21 17 12
41 41 41 41 40 39 39 38 37 35 35 34 32 28 25 27 24 13 11 9 17 16 4 13 14 14 14 27 33 24 32 41 41 34 33 32 31 29 32 25 21 25 13 17 19 20 16
42 42 42 41 41 41 41 39 38 36 36 34 32 30 29 29 19 9 13 7 12 7 11 10 12 16 22 18 26 13 31 45 42 35 34 29 29 21 27 25 19 14 16 19 13 16 9
38 39 40 40 41 41 41 40 38 37 35 34 33 31 31 31 15 22 19 17 16 14 13 15 11 14 16 20 20 21 23 49 41 33 41 30 34 33 26 23 25 25 26 4 4 4 6
37 39 41 41 41 41 41 38 37 36 35 34 33 32 31 29 19 24 23 25 19 28 38 4 6 3 23 18 22 24 17 43 50 30 24 27 18 33 28 35 25 23 23 13 5 4 5
42 44 45 44 41 39 37 35 35 34 33 34 29 31 34 27 19 30 29 32 31 38 18 36 31 29 13 18 15 16 33 29 48 43 18 26 26 22 33 25 21 25 29 27 14 3 1
47 50 47 42 39 36 34 33 32 32 32 30 28 32 37 23 23 34 38 50 38 26 30 8 16 16 21 11 4 8 19 30 29 46 36 14 10 35 20 21 27 24 25 16 10 5 3
51 49 41 36 34 34 33 33 33 32 32 30 31 32 41 28 26 40 58 48 35 35 28 30 23 16 11 14 11 17 10 25 16 39 45 41 18 9 21 29 28 28 29 15 20 12 4
47 40 36 34 35 35 35 35 34 34 32 29 33 37 40 33 38 51 62 45 43 10 22 30 40 34 24 18 16 17 15 21 15 22 40 44 21 27 27 24 27 29 33 35 17 9 16
39 37 37 37 37 38 40 41 39 38 36 35 37 40 39 39 52 57 47 50 49 37 29 31 42 39 35 30 12 14 21 10 19 18 29 34 26 19 23 28 37 27 25 37 34 22 27
38 38 39 40 41 42 42 42 42 43 42 40 43 42 47 50 57 52 48 46 36 39 45 38 37 32 20 28 30 16 23 11 15 19 21 26 37 39 25 27 20 8 26 33 34 31 25
37 39 40 42 43 44 44 43 40 38 39 44 50 50 55 50 64 53 45 45 45 39 33 31 46 45 39 30 21 25 23 21 14 14 15 25 33 33 38 29 29 17 19 21 37 37 27
34 36 38 39 41 42 39 36 36 37 36 49 56 63 51 50 39 57 56 54 39 33 40 37 38 30 32 37 29 17 20 23 14 14 13 28 22 33 30 33 31 23 24 28 28 24 29
33 34 36 38 39 40 40 41 43 41 43 52 57 62 52 48 40 41 64 58 37 35 31 34 34 33 36 26 22 17 14 20 18 15 20 12 13 18 25 29 22 24 38 35 27 19 18
36 37 38 37 36 38 41 42 43 47 53 57 60 61 55 50 50 66 46 44 49 35 41 30 21 27 25 20 23 19 16 21 21 19 22 24 17 16 17 17 9 22 28 27 27 29 26
34 34 35 35 35 37 38 43 45 48 55 53 59 59 65 61 55 47 49 45 33 38 42 29 20 17 12 16 20 23 21 24 23 26 24 17 30 26 20 26 13 12 17 21 25 29 29
31 35 37 39 41 39 41 40 43 48 52 56 56 58 46 64 59 53 46 44 34 31 33 40 28 18 18 16 23 18 8 10 8 11 23 26 18 33 15 13 9 13 26 16 10 23 20
34 28 32 34 37 42 40 43 41 45 52 55 57 57 52 35 62 44 53 46 41 33 25 28 30 29 22 20 27 26 22 8 8 9 17 17 25 23 13 14 6 8 9 20 29 23 17
25 28 31 35 36 39 40 39 42 44 48 54 52 47 46 27 39 44 40 39 31 35 37 29 30 35 33 30 31 26 22 24 21 17 18 20 16 24 19 15 8 13 10 16 16 11 16
24 27 28 27 36 40 43 38 41 42 44 49 49 44 38 39 34 31 29 21 20 19 22 25 36 23 38 25 27 25 21 18 31 27 21 20 32 30 22 21 19 16 29 9 20 15 16

GFSGBSN_700_spd_075.txt.gz
Wind_Speed
30 31 31 31 31 31 32 32 32 32 32 31 32 32 31 30 30 30 30 28 28 27 29 30 31 31 29 27 19 23 21 18 19 19 19 20 19 19 21 17 18 23 21 24 24 20 16
32 32 32 32 33 33 33 34 33 33 34 34 34 34 33 31 30 31 30 29 29 29 29 30 31 32 32 29 25 26 23 25 26 26 23 23 22 18 22 21 20 21 21 26 25 23 19
34 34 34 34 35 34 34 34 35 35 35 36 36 36 34 34 33 33 31 30 30 29 31 31 33 34 36 22 27 27 24 21 21 25 24 22 21 22 24 22 20 23 27 29 27 22 22
36 37 36 36 36 35 35 35 35 34 35 35 35 35 36 34 35 34 33 32 32 33 32 33 33 37 39 24 27 25 27 22 24 23 20 20 23 23 26 25 20 20 22 24 8 7 12
37 37 37 37 36 37 35 35 34 34 34 34 34 33 34 35 34 34 34 33 34 35 34 37 36 37 32 25 25 27 25 23 26 27 27 20 22 26 25 25 23 23 25 22 13 5 9
38 38 38 37 36 36 35 35 34 33 32 33 33 32 32 32 33 31 30 32 33 35 37 40 42 35 25 20 17 17 17 18 26 29 28 27 25 29 30 30 28 22 23 21 19 9 16
38 38 37 37 36 35 34 34 35 35 33 33 32 30 31 32 29 27 27 28 31 34 40 41 44 39 25 20 15 19 24 24 21 30 33 32 30 40 39 35 32 22 16 14 13 9 14
39 39 38 37 37 35 35 33 33 34 33 33 31 31 30 31 27 23 22 23 29 33 41 43 43 48 40 34 33 21 23 23 25 26 33 33 35 35 34 31 31 26 24 24 19 12 16
41 40 39 39 38 37 35 35 34 34 33 31 31 29 30 31 25 22 20 20 25 30 38 46 43 50 41 37 45 35 28 24 26 28 34 40 36 29 35 33 30 31 29 22 16 14 18
42 40 40 40 40 38 37 36 36 34 33 31 30 28 27 27 22 18 17 17 18 22 22 37 33 35 33 37 51 37 37 35 34 33 30 34 33 22 18 31 31 32 24 19 18 23 22
42 41 41 41 40 39 38 37 36 35 33 30 29 27 25 24 16 11 14 11 12 12 5 11 9 17 13 25 27 15 32 41 44 36 32 32 30 37 33 18 23 30 23 21 18 22 20
41 41 40 40 39 39 38 37 36 36 34 31 29 27 25 26 13 13 17 9 7 4 10 4 3 10 12 11 17 7 24 42 48 37 37 37 27 27 28 30 31 21 21 20 20 24 9
39 37 37 36 35 35 35 35 36 36 34 30 27 25 25 26 12 19 19 16 9 12 7 3 3 1 8 13 14 19 15 34 35 35 43 33 38 33 27 21 22 27 23 4 5 5 6
33 33 33 33 33 33 34 36 36 37 35 29 23 22 24 22 17 21 23 26 17 15 26 4 5 4 1 9 17 17 21 22 40 33 12 32 16 40 33 37 23 30 28 12 5 4 5
34 35 35 35 36 36 37 39 39 38 35 26 24 27 29 25 20 23 30 34 21 22 11 10 24 22 15 11 7 9 27 31 27 41 23 15 21 21 27 35 34 30 23 20 23 3 1
36 37 38 39 40 40 41 41 39 38 30 24 28 30 33 27 25 26 37 50 38 25 17 12 3 6 11 13 9 5 12 7 28 31 36 13 8 14 12 25 33 35 23 15 13 5 4
39 39 40 43 44 44 44 39 36 33 28 29 30 32 39 31 30 36 48 47 40 39 19 18 22 16 8 11 14 20 6 8 6 19 27 36 14 2 26 22 32 30 28 20 18 17 6
43 46 48 49 49 43 38 35 34 32 30 32 33 37 39 34 39 47 53 53 43 11 29 30 26 30 25 17 12 11 18 5 6 13 17 38 29 34 21 11 18 30 28 29 18 5 6
53 51 47 41 37 34 33 33 33 36 34 35 38 39 38 29 44 51 49 43 46 46 27 27 25 24 27 23 17 10 17 15 15 12 5 16 30 19 20 33 35 24 31 23 20 21 27
37 36 34 35 34 34 35 36 36 38 39 39 40 41 38 38 46 47 50 42 41 44 47 39 31 23 21 17 20 21 19 16 16 14 11 14 31 35 28 14 22 21 29 36 27 27 23
30 30 31 32 34 35 38 39 40 42 44 43 44 45 47 48 53 51 46 43 43 42 37 37 48 43 31 21 21 26 27 25 30 22 11 11 23 32 37 35 28 26 26 29 32 36 33
28 29 30 31 30 32 36 40 41 42 42 44 51 54 49 56 41 51 47 52 43 36 38 32 30 26 17 34 42 13 14 14 24 22 17 6 8 26 33 37 30 33 33 31 25 17 25
32 33 35 36 36 37 37 37 39 38 39 45 54 56 50 44 48 45 57 52 43 41 41 35 29 26 21 20 13 17 25 20 18 16 20 18 3 7 19 26 24 24 36 40 40 26 9
34 34 34 34 34 35 36 38 41 45 44 49 51 55 51 52 51 60 44 44 47 36 34 30 18 24 17 10 9 22 27 24 20 18 16 19 16 3 2 12 5 20 27 25 49 33 28
31 32 34 36 37 38 39 40 42 42 49 50 54 51 59 55 41 45 42 42 39 31 35 33 28 22 6 16 16 11 23 27 29 26 19 20 16 7 5 18 10 7 7 17 22 32 23
31 32 34 35 35 36 37 36 36 39 45 49 48 53 48 57 57 42 44 44 36 32 29 33 21 18 22 16 16 20 8 14 6 7 19 20 17 14 11 6 5 4 10 14 11 29 31
31 34 34 35 38 37 38 39 38 36 40 50 56 51 47 45 53 45 44 40 36 31 28 25 19 27 27 23 19 21 23 14 8 6 9 20 23 27 18 14 12 7 10 18 18 9 13
28 30 30 30 32 34 37 38 41 42 40 50 54 54 49 44 43 31 43 46 41 36 34 28 24 27 34 33 23 16 17 23 19 8 5 11 9 12 11 6 9 7 11 14 20 19 15
31 29 29 31 33 34 36 37 39 43 42 47 54 55 51 43 18 46 29 26 36 35 25 30 26 23 35 27 29 13 21 14 25 18 22 13 14 10 11 12 13 10 12 18 16 17 12

GFSGBSN_700_spd_081.txt.gz
Wind_Speed
29 29 29 29 29 30 30 31 31 32 33 33 34 35 35 35 34 33 32 33 34 34 35 35 35 31 33 30 26 24 23 18 16 13 15 16 18 16 18 19 19 25 25 24 23 24 25
30 30 31 32 33 33 32 31 32 32 33 34 35 35 35 35 36 34 33 34 34 34 35 35 34 31 35 36 25 26 27 26 24 22 19 20 19 17 20 23 22 25 26 26 26 26 26
34 34 34 34 35 34 35 35 35 33 34 34 35 35 36 35 35 34 34 34 36 36 36 36 36 35 38 27 26 29 22 23 25 27 28 25 26 23 23 26 26 26 29 29 29 25 24
35 36 36 36 36 36 36 36 36 36 35 34 35 35 35 35 34 32 34 33 35 37 35 36 39 41 43 27 26 29 29 29 26 27 26 30 35 34 32 29 26 21 23 25 20 9 9
36 36 36 35 36 37 37 36 36 36 35 35 34 34 34 33 31 30 31 30 33 36 35 35 37 38 38 25 24 29 28 29 32 32 31 30 25 28 30 29 29 27 24 28 26 20 13
37 38 38 38 37 37 37 36 36 36 35 34 34 33 33 32 30 29 27 28 30 33 33 34 36 33 28 23 24 19 17 16 26 32 33 31 27 31 28 33 28 25 26 28 22 14 12
40 40 41 39 38 38 37 37 36 36 35 34 33 32 31 31 29 29 26 28 28 29 30 31 29 30 20 13 21 24 11 23 19 24 29 35 36 38 35 36 31 22 24 26 24 14 15
44 43 44 45 42 41 41 39 38 37 36 34 33 31 30 31 27 24 25 25 26 30 33 26 30 33 28 24 28 31 30 21 23 21 18 28 41 35 34 28 28 28 25 34 29 26 21
46 46 47 49 49 46 44 40 39 37 36 34 32 31 30 30 27 23 21 21 25 29 33 36 31 26 25 26 30 30 31 26 22 25 28 31 26 28 35 34 29 30 30 34 30 26 25
38 41 45 48 48 47 45 40 38 36 34 32 31 29 29 29 25 20 19 19 21 23 22 25 17 6 7 14 22 28 34 38 29 30 27 24 25 24 22 27 31 36 33 33 32 26 12
35 35 35 38 42 40 40 39 37 35 33 31 28 26 26 29 22 15 17 14 14 14 5 6 6 3 5 7 5 7 16 36 45 36 26 21 14 21 32 27 20 26 25 25 22 27 19
32 33 32 31 30 32 35 36 35 33 31 29 26 22 25 26 17 15 15 12 11 5 8 3 2 2 3 3 5 6 8 12 27 41 35 32 22 18 15 16 29 14 15 13 12 14 9
32 32 30 28 30 28 31 32 30 29 27 25 21 20 20 19 12 18 13 14 7 9 2 4 6 3 2 2 2 7 9 7 9 13 32 34 38 30 22 17 17 22 13 3 4 6 8
34 32 30 26 24 26 27 26 26 24 23 20 16 18 19 15 15 17 15 18 13 4 11 6 6 1 3 3 1 4 6 8 8 12 5 20 14 27 30 30 23 26 31 9 7 5 6
34 34 30 28 28 28 26 25 24 23 21 18 18 19 22 17 18 17 20 25 11 11 11 7 5 10 6 1 1 2 6 2 3 12 11 6 10 8 17 26 36 23 29 30 15 8 4
32 33 32 31 29 28 27 26 26 24 23 21 22 20 21 17 21 25 27 35 26 14 8 6 9 4 4 7 4 2 2 2 2 3 17 9 11 14 9 20 25 28 18 13 21 7 11
33 33 33 32 32 30 30 29 27 27 25 21 21 24 19 23 27 33 42 35 25 30 16 14 12 14 12 8 5 7 4 6 3 3 5 17 13 7 14 15 21 30 29 18 18 22 8
29 28 29 32 34 33 32 31 30 28 24 23 25 28 24 25 36 38 47 41 23 15 22 27 25 21 20 18 16 9 9 10 7 12 6 4 6 18 24 10 10 24 32 39 18 7 19
29 28 29 30 32 34 34 33 32 31 28 26 31 31 30 30 39 46 36 41 39 25 21 17 23 24 22 19 10 4 11 17 11 12 8 6 2 5 9 25 27 21 20 28 41 24 24
32 34 35 37 39 39 39 39 39 38 35 32 34 39 37 43 44 44 44 33 30 33 31 23 22 23 23 21 18 10 15 15 19 15 15 19 16 10 10 10 8 22 23 21 27 29 33
36 36 35 34 34 33 34 35 35 35 36 40 45 44 42 30 48 47 38 37 37 35 29 29 33 30 21 19 19 21 21 22 24 15 19 18 21 22 26 29 29 28 23 25 32 31 25
29 27 27 26 25 24 23 23 27 34 36 44 51 49 33 49 33 41 46 45 39 32 35 33 32 27 27 34 32 30 25 19 13 10 12 6 11 16 29 25 29 36 36 32 26 34 37
29 27 28 29 27 27 26 26 28 29 37 45 47 54 39 46 30 42 43 45 38 34 34 33 27 24 25 19 13 14 16 17 20 24 25 20 15 9 12 30 26 24 43 35 33 35 29
28 29 29 28 30 32 32 31 29 31 35 46 49 54 51 34 38 41 39 35 35 32 29 27 24 26 21 10 12 15 21 21 22 24 27 26 16 11 18 28 4 4 14 22 31 31 31
31 30 29 28 28 29 31 31 32 32 36 40 51 49 53 49 36 32 34 36 34 35 35 33 26 20 18 12 12 10 12 15 20 24 25 25 21 9 5 7 15 6 2 2 10 13 11
27 26 26 26 25 26 27 30 32 33 36 40 44 48 49 53 57 47 40 35 36 36 31 30 27 23 15 14 5 5 4 4 3 5 12 22 22 20 8 4 3 14 9 9 7 12 10
25 24 23 23 27 30 28 29 31 33 33 41 43 43 46 49 48 39 48 42 31 30 27 20 19 28 25 20 17 13 8 9 5 5 3 21 25 29 22 8 8 9 9 11 5 5 11
28 27 27 28 30 28 29 32 31 33 34 38 41 45 32 36 24 33 40 43 38 30 27 24 21 23 23 21 17 10 11 10 11 18 2 4 15 17 22 11 6 5 5 5 8 7 10
27 30 30 30 30 31 30 32 37 35 35 39 39 41 43 36 14 24 30 31 28 28 27 24 21 14 15 15 17 12 14 10 10 6 13 9 3 2 8 11 6 6 12 10 11 10 8

GFSGBSN_700_spd_084.txt.gz
Wind_Speed
26 26 27 27 28 27 28 28 27 27 28 29 30 30 31 31 30 29 31 33 33 33 34 34 32 30 30 31 24 26 24 17 16 14 16 20 21 20 20 17 21 24 21 20 20 21 23
29 29 30 30 30 30 30 29 29 30 30 31 30 30 31 31 30 31 31 32 32 34 34 33 33 31 31 31 24 26 26 25 26 24 22 20 21 20 18 20 20 13 20 22 21 22 23
31 31 31 32 32 32 32 32 32 32 32 31 31 32 32 31 30 31 31 31 31 35 33 33 34 34 35 25 25 23 25 25 24 28 28 25 24 23 18 18 23 23 26 24 25 24 24
33 33 33 32 32 31 31 32 32 32 33 33 32 32 31 30 29 29 28 30 31 34 32 34 34 34 37 26 26 25 27 29 29 24 27 32 29 27 28 20 22 19 20 24 15 13 12
35 34 34 33 33 32 32 31 31 31 31 31 32 31 31 31 30 29 28 28 28 30 30 31 32 32 36 25 24 26 27 30 29 29 29 29 29 32 30 31 28 25 24 22 17 16 13
37 36 35 34 34 34 33 32 31 30 31 31 31 31 31 31 30 30 29 28 28 27 28 29 30 29 27 24 23 22 15 17 22 30 34 38 33 30 26 24 35 26 24 22 22 11 10
36 37 36 36 36 37 36 33 33 31 31 32 32 31 30 30 31 29 28 27 27 29 30 24 25 24 15 13 17 21 19 14 21 21 31 34 31 33 31 35 28 25 19 22 21 12 12
36 36 35 35 36 38 39 36 35 33 32 32 31 31 30 29 29 27 27 25 24 29 33 28 27 30 25 25 27 26 25 22 19 21 19 20 33 29 28 25 27 26 24 28 23 16 16
33 31 33 33 34 36 39 38 39 36 34 31 31 29 29 30 28 26 25 26 23 25 30 32 28 24 23 24 28 30 31 27 24 24 27 24 11 19 28 28 27 27 28 29 23 18 21
30 30 30 29 31 33 35 36 37 35 33 33 31 30 30 30 28 21 22 22 21 21 17 20 18 12 10 16 18 24 31 30 23 21 21 21 25 18 22 29 26 28 25 24 24 22 21
30 28 28 28 30 31 33 33 32 32 31 32 31 30 28 30 29 15 21 18 16 12 6 7 7 7 9 8 6 9 13 36 29 19 22 15 13 21 26 25 22 25 18 20 17 19 21
29 29 30 29 28 29 30 28 28 25 27 29 28 27 27 27 26 16 18 13 11 4 9 4 6 5 3 4 8 8 3 17 28 38 24 20 12 14 16 20 19 13 13 10 10 12 13
30 30 31 29 28 27 26 26 24 20 23 24 24 24 26 24 17 16 13 11 7 11 3 5 5 6 3 3 3 7 6 4 9 9 23 29 32 20 18 10 15 19 13 6 9 8 9
30 31 30 30 29 27 24 22 19 19 20 20 20 22 24 24 16 18 14 17 15 6 10 6 7 6 4 5 4 2 1 3 6 8 5 11 10 33 36 32 18 23 23 10 9 9 8
31 30 30 29 29 27 24 21 20 19 18 18 19 21 23 18 17 20 20 26 10 15 9 9 5 4 4 4 4 4 4 4 3 9 6 4 8 9 14 24 29 21 30 23 20 19 11
32 30 29 28 30 27 24 23 20 18 17 19 21 21 19 16 22 25 32 31 22 11 6 14 6 3 5 2 1 2 3 3 3 1 14 5 6 7 8 13 22 28 10 17 20 7 11
32 31 28 28 27 27 28 25 21 20 19 21 20 22 17 18 28 30 36 36 30 16 14 11 6 4 2 3 3 3 1 3 4 4 2 10 7 4 7 12 19 20 24 21 17 25 11
31 28 26 23 21 23 25 25 23 22 21 24 21 25 22 20 29 36 36 36 20 17 24 16 14 13 12 7 6 6 6 3 6 6 4 5 6 12 17 8 12 16 23 26 24 17 19
27 25 23 22 20 20 21 26 27 25 25 22 28 30 25 20 29 36 34 25 32 26 17 13 15 16 11 10 7 8 8 8 15 11 3 4 4 8 9 15 18 16 15 23 29 28 31
24 24 23 23 24 25 26 25 27 28 28 27 29 29 29 31 32 27 30 37 23 29 21 22 12 12 11 11 12 7 7 6 13 11 13 11 10 11 11 4 4 10 13 19 23 31 29
24 23 24 26 28 28 28 28 32 31 30 33 36 39 33 18 35 34 33 27 32 16 22 19 17 19 15 14 13 15 15 15 14 16 15 11 16 16 20 21 20 21 22 21 27 35 32
28 29 29 26 22 23 24 28 30 31 37 43 45 37 43 40 30 27 40 39 32 32 24 21 21 16 19 19 17 13 11 14 13 8 9 8 9 10 17 18 21 23 29 29 33 32 33
20 20 21 22 24 24 23 23 23 27 36 42 47 45 34 31 39 28 36 34 30 28 24 25 21 19 20 18 21 18 17 19 19 15 12 11 8 6 10 6 13 25 16 22 36 36 33
22 23 23 24 24 24 25 28 27 29 31 39 46 43 44 46 26 38 31 28 28 32 33 21 21 19 19 19 17 14 18 21 20 21 19 17 14 10 11 13 13 15 27 22 25 33 32
30 29 28 27 27 26 27 27 31 31 31 37 42 45 45 46 42 27 36 30 27 25 31 31 20 18 20 13 9 6 7 10 18 21 25 25 20 12 9 16 16 14 27 15 9 14 23
23 24 27 27 26 26 25 25 28 31 34 33 38 40 42 41 47 34 23 24 26 25 27 30 24 22 19 15 8 6 6 5 4 4 12 24 22 20 13 9 4 4 13 13 12 8 4
21 21 22 23 24 23 23 26 28 30 32 36 35 40 42 33 32 37 38 30 24 24 25 27 27 25 21 21 15 9 8 6 5 5 8 23 23 27 23 9 8 3 7 12 7 0 3
22 22 23 25 26 26 25 26 28 30 32 36 39 37 36 45 45 39 38 38 37 35 30 23 18 25 25 24 16 9 10 14 12 11 4 14 17 19 20 9 9 6 3 5 5 12 3
23 25 25 25 25 26 28 29 30 31 32 34 36 37 33 30 28 40 40 36 35 34 29 31 27 20 19 19 17 11 11 11 13 8 7 10 11 13 13 12 6 7 6 3 8 8 9

GFSGBSN_700_spd_087.txt.gz
Wind_Speed
29 29 28 29 28 28 27 27 28 28 28 28 28 28 29 27 27 30 30 31 31 31 32 32 30 28 27 30 23 30 24 22 16 17 18 19 23 22 25 19 22 27 24 24 22 22 23
31 32 31 32 31 30 30 30 29 30 29 28 29 29 27 27 28 28 28 29 31 32 33 31 31 29 30 29 24 24 23 25 24 25 20 16 17 19 20 23 26 21 23 26 25 26 24
34 34 33 32 32 32 32 31 31 31 31 31 30 29 29 28 28 27 27 28 29 30 30 31 30 31 33 22 23 22 23 22 23 27 28 26 20 17 16 20 20 23 25 25 28 26 28
38 36 35 35 34 33 33 32 31 30 29 29 29 29 30 29 28 27 26 26 28 28 27 28 28 30 36 24 26 23 24 25 27 27 26 25 31 29 23 18 15 16 22 27 24 23 24
40 40 38 36 35 33 33 30 30 30 30 30 29 28 28 28 28 27 26 26 27 28 26 25 24 24 32 22 23 25 28 28 29 30 31 29 31 31 23 24 25 23 29 26 23 20 18
39 39 39 37 34 34 34 32 31 30 30 29 29 28 28 28 28 27 26 26 26 27 28 26 28 25 16 11 17 24 22 21 25 31 31 34 28 26 29 30 35 26 30 27 26 21 23
37 37 37 36 35 34 35 35 32 32 32 32 30 30 29 28 28 27 26 24 26 27 28 23 21 27 23 20 12 14 22 21 18 19 28 33 32 38 33 30 32 28 29 29 22 18 13
34 34 35 35 33 33 33 33 32 32 33 32 32 31 31 30 28 26 26 24 26 27 33 31 28 31 26 26 25 24 21 21 18 20 17 23 38 36 31 29 28 30 33 32 30 25 20
33 33 32 31 29 30 28 29 29 30 30 30 30 31 30 29 25 24 23 25 25 26 30 36 29 30 29 31 29 27 27 25 20 20 22 28 15 25 31 32 30 33 33 30 31 26 24
34 31 28 28 28 28 27 26 26 27 25 25 26 26 27 26 25 21 20 24 22 20 16 19 21 21 24 22 26 26 31 27 22 28 22 29 27 18 21 32 28 32 28 27 26 27 26
32 33 29 28 26 25 25 24 25 25 26 25 23 25 26 25 23 15 23 21 17 12 7 5 10 12 11 13 8 13 19 29 32 24 17 26 21 27 31 26 24 31 21 22 24 28 24
33 32 31 28 26 25 24 23 23 24 22 22 22 23 24 22 22 18 21 14 10 5 10 7 8 7 7 8 9 13 10 16 21 26 24 27 15 17 24 24 20 17 19 19 17 20 21
30 29 30 29 27 26 24 23 23 23 18 17 18 22 23 24 18 12 11 10 7 11 5 12 8 10 7 9 8 11 7 9 13 16 31 26 29 22 15 17 18 19 18 12 14 15 13
25 28 27 28 28 27 25 25 21 19 17 16 17 20 21 22 20 16 16 17 15 8 22 4 7 12 9 10 9 9 9 10 16 16 11 18 15 35 31 24 15 23 25 13 11 10 11
28 26 27 26 27 27 25 17 21 19 17 17 17 18 20 17 17 20 22 24 22 22 10 9 9 11 12 10 8 9 11 8 6 13 10 6 15 7 16 35 28 22 26 25 29 25 12
25 25 24 25 26 27 28 26 24 20 18 18 18 21 17 17 18 25 25 31 24 10 3 9 12 11 15 11 9 8 12 6 6 3 9 7 11 7 11 10 23 35 21 20 24 16 17
23 25 25 24 24 25 25 28 25 23 19 21 20 21 13 18 21 25 32 23 27 14 12 6 8 5 6 6 5 6 5 5 3 2 2 7 9 5 8 14 16 21 33 24 19 24 11
24 24 25 23 22 23 23 23 26 23 22 21 20 19 15 19 25 27 36 25 22 22 20 15 7 6 8 5 7 7 7 5 2 2 4 5 5 11 14 3 10 18 20 26 25 21 21
25 25 24 23 22 23 22 22 24 24 24 20 22 21 19 17 23 28 24 33 21 22 13 17 23 17 16 11 9 11 12 11 7 3 2 2 5 9 14 14 15 16 15 19 23 25 29
21 20 20 19 20 21 21 20 20 25 26 24 24 21 21 26 28 23 23 28 29 14 24 16 11 17 11 14 14 9 9 8 7 5 12 10 11 13 14 10 6 10 17 15 18 25 24
21 21 21 21 21 22 23 24 25 26 28 30 32 32 19 11 26 25 24 20 20 30 23 24 19 18 13 14 15 19 17 15 13 13 12 9 15 16 20 24 19 18 18 19 24 24 28
23 24 25 25 25 27 24 24 25 27 30 37 39 37 28 26 20 17 22 29 28 20 22 21 19 15 18 21 18 8 12 10 10 8 7 8 12 12 17 21 25 28 26 25 26 26 32
15 18 20 19 19 21 21 23 26 30 35 41 38 33 30 27 27 27 25 22 20 24 24 24 16 15 17 16 17 19 19 19 20 15 13 12 9 9 16 14 14 20 28 29 27 24 27
19 20 20 21 22 22 24 24 25 27 34 41 46 38 36 33 23 23 25 24 22 23 27 19 20 20 15 22 20 22 22 21 21 21 20 18 15 12 8 11 10 17 11 17 18 27 28
26 27 27 27 24 24 24 24 26 30 30 37 41 45 46 46 33 30 21 22 21 19 23 23 19 20 21 16 12 8 10 11 22 23 25 24 19 9 8 13 19 23 17 13 16 29 11
24 24 24 23 25 28 28 27 27 29 33 30 37 37 39 42 42 28 28 26 24 24 17 21 25 31 20 15 9 9 9 10 5 6 21 25 23 22 11 12 6 1 2 9 7 13 11
23 24 24 24 24 26 28 29 28 30 31 33 35 30 33 41 31 24 30 26 20 21 18 22 21 25 25 18 15 13 12 7 6 7 11 23 24 24 21 18 12 6 5 8 4 7 8
19 20 23 24 24 26 27 27 27 29 31 33 33 34 33 39 32 25 26 26 21 20 21 17 20 24 18 17 11 14 10 9 12 10 5 15 18 16 23 17 17 9 6 2 7 15 19
19 19 21 24 25 28 28 29 29 27 31 32 33 31 31 29 31 38 30 30 29 25 20 19 17 13 13 14 16 11 12 10 12 12 13 9 15 8 12 17 6 3 3 3 5 8 14

GFSGBSN_700_spd_093.txt.gz
Wind_Speed
27 28 29 29 30 30 31 31 29 31 31 30 30 29 30 29 28 28 29 26 24 24 24 24 24 25 25 31 17 20 23 23 21 19 16 16 21 23 28 26 23 27 28 28 28 27 31
31 32 32 33 34 34 33 32 34 32 32 32 32 31 30 31 31 29 27 27 26 25 23 22 23 24 26 27 20 25 29 23 22 24 24 21 18 19 23 22 23 25 29 31 30 32 34
32 33 35 37 37 37 37 37 35 36 35 33 33 33 32 30 29 28 26 25 26 25 23 23 23 25 29 13 20 22 27 20 18 22 25 24 18 15 18 22 23 25 34 36 37 36 32
32 34 36 37 38 39 39 39 39 37 36 35 34 33 32 31 29 26 24 23 22 24 23 23 23 28 29 16 20 19 23 21 20 22 21 22 24 26 27 27 26 27 26 34 36 36 36
37 37 38 38 39 39 40 41 40 39 38 36 34 34 32 31 28 24 23 22 20 24 23 22 22 27 23 13 14 17 18 22 23 23 23 23 26 31 30 29 30 32 33 31 27 19 21
42 42 42 42 41 41 40 40 40 40 39 36 34 32 31 30 29 26 25 23 22 24 24 22 23 23 11 11 18 13 10 12 17 23 26 27 29 32 33 29 30 30 37 37 33 25 22
43 42 42 44 44 43 41 40 41 39 37 38 34 32 32 30 29 28 26 24 24 25 28 25 22 22 21 16 20 17 15 15 18 20 23 25 32 38 34 35 38 33 28 32 31 26 23
44 45 46 42 43 43 42 41 40 38 36 37 36 33 31 30 28 27 27 22 23 30 31 26 26 29 23 21 29 21 17 18 17 20 17 21 36 29 28 30 26 27 30 35 33 29 32
44 43 39 26 29 33 33 37 36 32 33 33 35 32 30 27 24 24 23 21 24 26 30 30 24 30 25 29 31 18 27 24 22 19 20 25 29 12 20 21 26 31 35 32 32 29 23
38 34 31 33 30 34 31 28 27 30 25 22 25 30 26 21 19 16 16 16 21 16 17 31 18 15 16 22 28 21 30 29 31 32 22 28 28 25 26 31 25 31 25 31 34 27 20
33 30 34 38 38 35 41 35 29 27 18 16 20 24 23 17 15 13 11 11 10 8 5 3 8 8 7 12 10 12 11 30 38 32 22 40 15 23 27 26 23 26 19 24 26 21 28
32 32 31 34 30 29 29 24 22 23 20 20 19 20 16 16 12 13 12 5 6 3 9 8 13 9 13 14 16 11 11 20 28 30 32 36 30 24 25 23 23 23 23 14 17 20 11
30 24 21 27 27 27 22 20 24 19 16 17 17 16 12 13 10 17 12 9 6 8 3 1 8 13 14 16 20 17 14 24 25 21 32 36 38 32 28 25 15 20 19 4 5 7 6
27 26 20 24 27 19 24 25 25 14 11 15 16 17 14 9 16 17 15 12 13 6 12 19 13 6 18 13 22 14 21 17 21 19 6 18 8 23 36 36 23 25 19 12 6 4 3
26 25 23 19 22 25 21 19 16 14 11 14 19 20 14 10 18 23 21 17 10 17 7 21 19 13 15 15 18 21 23 24 16 21 15 8 10 12 20 25 27 24 26 31 24 22 5
25 24 23 20 20 20 20 19 15 15 11 15 17 20 7 13 18 22 22 28 23 22 16 15 11 8 14 15 17 22 21 17 24 20 25 16 11 9 7 15 26 33 20 21 21 4 10
27 24 23 21 19 19 18 16 13 14 13 14 19 19 2 8 19 19 27 31 29 23 12 17 14 16 9 14 11 10 20 24 19 10 19 14 11 10 2 15 18 23 29 16 14 13 3
26 23 22 22 19 17 14 12 9 9 18 20 18 13 7 11 20 24 28 27 25 25 19 19 20 19 11 7 14 4 8 14 17 12 5 7 6 6 11 13 13 17 24 35 21 11 20
24 24 22 22 19 15 16 13 13 11 14 13 19 13 11 15 21 26 22 22 19 17 14 11 14 15 12 16 8 5 9 3 4 5 5 6 2 2 5 10 7 5 16 23 25 31 27
24 21 20 19 16 16 18 20 18 19 18 16 17 11 16 21 20 18 15 20 20 14 17 17 23 19 19 13 8 14 16 5 5 4 3 6 5 2 3 8 12 15 14 6 10 16 22
24 21 19 17 16 13 15 16 17 20 22 24 26 23 14 9 24 20 19 18 11 12 15 20 19 18 14 13 13 20 17 4 4 3 4 3 5 12 20 17 12 18 22 17 16 13 15
25 22 20 20 19 16 15 14 15 18 23 25 27 26 21 23 15 12 19 25 19 13 14 14 19 25 19 21 14 15 14 10 5 3 2 1 6 8 13 10 10 17 21 21 22 21 18
18 15 15 17 17 17 19 19 18 19 27 29 26 26 27 27 27 22 17 13 12 13 14 17 17 19 26 14 10 20 13 11 9 6 7 6 6 5 6 8 10 12 19 19 16 18 17
17 18 18 18 18 18 16 16 19 24 30 30 28 27 30 27 25 26 24 18 14 11 14 16 19 17 20 18 20 15 18 19 18 18 16 17 9 7 8 13 2 4 7 10 12 6 19
21 22 21 21 22 23 21 18 18 20 28 29 29 32 31 30 21 20 22 19 17 15 15 17 18 22 17 11 13 9 14 18 25 24 25 24 16 8 4 4 12 14 6 4 6 9 12
22 23 19 17 18 19 24 23 21 22 21 30 30 32 36 34 30 22 19 18 19 13 15 18 18 12 11 12 4 4 3 6 4 5 19 25 18 18 4 4 3 8 7 7 7 4 10
23 20 20 19 17 17 17 21 23 26 24 27 27 23 35 42 32 26 25 18 14 16 18 12 12 17 18 17 15 9 8 9 7 5 13 24 22 24 23 8 6 10 13 20 4 1 7
21 21 21 21 20 19 20 20 22 26 29 28 26 26 23 33 38 31 25 23 15 19 20 16 13 17 12 12 9 9 8 8 8 13 13 19 17 18 15 5 9 12 13 6 4 7 6
21 22 22 21 20 18 21 20 22 24 29 30 28 24 23 24 25 21 30 28 23 21 22 16 16 8 11 9 11 5 7 8 6 4 3 13 20 8 10 8 9 9 5 8 4 3 6

GFSGBSN_700_spd_096.txt.gz
Wind_Speed
23 25 26 27 28 29 29 29 30 30 30 30 29 29 30 29 29 28 28 26 26 27 26 26 27 28 29 32 20 23 27 25 22 20 18 18 22 26 31 32 28 37 35 31 27 24 23
23 25 27 28 30 31 32 33 34 33 34 34 33 31 31 31 31 29 28 27 27 27 28 26 28 27 28 31 21 26 27 24 23 24 24 24 18 17 27 28 31 32 30 30 25 25 27
27 28 31 32 32 33 34 35 36 36 36 36 36 35 33 33 33 32 29 26 24 27 29 28 29 29 31 13 21 25 23 20 21 21 25 27 26 24 22 23 26 25 29 30 31 31 34
30 33 34 35 36 38 38 39 39 39 39 38 38 37 36 36 33 32 30 28 26 27 28 27 27 30 32 17 22 19 24 19 21 22 21 20 27 33 30 26 22 22 28 33 33 32 33
34 34 35 35 35 36 39 41 43 43 42 41 40 39 38 35 35 32 30 27 24 30 26 28 25 28 23 16 15 20 24 20 21 22 22 21 26 33 33 29 28 32 36 34 32 27 28
37 38 38 39 39 39 39 40 43 45 45 44 43 41 39 37 34 32 29 28 26 27 27 25 26 24 15 16 17 13 12 12 13 20 26 28 29 32 35 33 33 32 34 38 36 28 24
38 39 40 40 41 43 43 41 43 44 43 45 44 41 39 37 35 31 28 28 26 28 31 27 27 19 10 12 16 13 17 19 17 19 22 27 34 42 37 32 35 36 33 33 31 26 24
37 38 40 39 41 43 44 38 25 26 26 29 32 35 37 36 33 28 25 25 28 28 32 30 29 30 23 20 27 21 22 20 20 20 18 24 39 36 31 30 31 33 35 41 38 33 30
33 36 36 36 38 40 37 34 32 33 31 28 26 21 24 28 26 21 19 19 24 26 28 32 28 34 27 28 31 20 28 27 25 23 21 27 18 18 26 27 29 31 33 34 36 26 26
33 35 36 35 35 32 32 37 35 34 29 26 25 15 19 26 14 13 16 20 17 16 15 25 21 23 21 27 34 28 30 35 31 28 23 23 25 25 18 21 20 29 19 22 28 30 24
32 34 34 32 28 26 26 27 28 34 32 31 23 20 21 20 11 16 20 15 12 6 2 7 7 8 7 12 18 8 20 32 38 35 27 23 4 15 25 29 23 34 22 31 27 32 27
32 32 31 28 25 25 23 24 28 23 21 19 21 18 20 14 11 19 18 11 8 6 7 4 3 6 9 9 13 11 12 17 24 36 38 34 29 22 23 21 23 22 19 17 14 21 11
32 30 28 26 25 23 22 19 19 24 23 21 17 17 14 10 15 22 19 15 8 7 2 4 5 10 18 15 16 18 17 18 16 17 37 38 42 38 33 31 26 21 14 5 5 4 6
32 30 27 25 24 24 21 19 21 21 21 9 12 14 15 6 16 21 18 17 8 2 6 12 14 11 17 19 17 16 22 17 17 19 8 17 15 35 34 41 34 33 23 15 5 5 8
32 31 27 25 24 22 22 19 20 18 10 6 11 14 10 7 18 18 15 19 4 9 6 15 12 2 3 11 15 10 22 21 17 19 20 9 12 8 11 17 40 38 28 26 22 12 6
32 30 26 24 23 22 21 20 16 15 8 10 10 9 4 12 19 24 17 19 11 9 8 13 10 7 10 13 5 7 18 13 25 23 18 20 12 18 11 16 18 37 34 14 19 6 13
30 27 24 22 22 22 18 18 14 10 8 8 12 6 6 10 15 23 28 26 28 17 15 12 7 13 17 20 13 10 5 15 17 18 26 31 23 14 9 6 17 30 22 15 11 16 6
28 25 23 21 20 20 15 13 10 9 9 12 14 6 8 9 14 20 27 26 17 13 8 16 14 14 14 14 17 10 4 3 9 14 11 22 16 17 20 7 5 13 29 31 20 9 17
27 23 22 19 18 16 14 12 9 8 7 10 13 7 12 13 16 19 18 15 15 14 9 10 9 9 13 17 11 11 4 2 3 11 4 14 10 4 6 11 11 10 10 4 14 27 26
25 23 22 18 17 14 12 13 13 13 13 12 12 6 11 17 17 14 13 19 17 13 14 10 13 14 16 20 18 11 11 5 5 0 7 4 6 4 3 3 4 8 8 7 6 4 7
25 23 20 18 14 10 7 8 9 13 15 18 18 15 10 2 10 16 14 12 10 10 7 7 12 14 14 12 13 14 10 12 5 2 7 4 3 8 6 6 7 10 12 12 14 12 10
24 21 19 14 13 14 14 10 10 9 16 22 26 20 19 19 16 11 7 14 18 14 13 15 10 8 16 21 16 17 13 9 7 5 2 1 0 4 6 6 7 15 16 11 14 12 18
23 18 13 11 12 13 13 13 14 15 19 21 18 19 20 21 20 20 14 10 5 7 10 10 15 17 17 15 15 17 11 9 12 10 5 4 3 6 2 4 10 7 6 8 8 11 13
22 17 16 16 15 16 14 14 15 17 26 19 17 18 21 23 21 21 22 19 15 15 17 11 11 14 19 16 15 15 17 12 15 19 14 10 9 5 4 9 2 2 9 6 3 4 2
21 17 17 18 17 17 19 19 16 16 19 26 20 24 24 23 19 14 14 18 21 18 17 15 10 12 11 6 9 6 4 12 19 20 21 21 19 4 2 0 11 4 3 4 8 5 10
20 18 19 20 17 15 15 18 22 20 19 25 23 21 25 25 21 18 17 13 14 13 12 11 11 12 10 7 8 2 3 4 5 6 4 23 17 8 6 2 3 1 3 6 8 1 9
19 19 20 19 18 15 14 16 18 22 22 22 24 25 26 29 27 27 21 12 14 13 12 8 9 11 9 11 7 7 6 8 5 6 2 11 12 16 13 4 6 10 10 12 3 4 3
20 19 18 17 18 17 15 15 17 20 23 26 23 22 26 26 28 26 22 22 15 14 17 10 10 10 11 9 5 5 5 6 7 10 15 16 12 12 12 6 8 7 9 6 4 10 6
20 20 19 18 19 19 18 16 16 20 22 25 27 24 24 24 27 16 20 20 21 20 16 19 13 4 2 5 7 6 6 5 9 10 5 6 8 7 7 6 11 5 6 2 5 2 2